Location: Newark
(48.2308°N, 120.8549°W)
Time: 14:43:24
(UTC+00:00)

Transit 2A Rocket - Pass Details

Date: 02 June 2020
Orbit: 584 x 919 km, 66.7° (Epoch: 07 July)

Event Time Altitude Azimuth Distance (km) Brightness Sun altitude
Rises 09:13:14 0° 291° (WNW) 3,282 8.3 -17.7°
Reaches altitude 10° 09:16:56 10° 317° (NW) 2,430 8.0 -17.5°
Maximum altitude 09:19:45 14° 347° (NNW) 2,219 8.2 -17.4°
Drops below altitude 10° 09:22:40 10° 17° (NNE) 2,529 9.0 -17.2°
Sets 09:26:41 0° 42° (NE) 3,521 9.7 -17.0°
